Погода в Пертозере

Россия / Республика Карелия     64°09′55″N   33°09′38″E
темп.,
°C
ветер,
м/с
пор.,
м/с
влажн.,
%
обл.,
%
осадки,
мм/ч
давл.,
гПа
погр.,
м
9 мая, вс
вс900:00+3ю1494100 0.1 1002218
03:00+2зюз2398100 0.4 1003395
06:00+1сз5129583 0.7 1005564
09:00+3зсз59765 0.7 1007921
12:00+6зсз585953 0.0 10091717
15:00+8з585180 0.1 10102071
18:00+7зюз48585 0.2 10121617
21:00+4юз388194 0.3 1014197
10 мая, пн
пн1000:00+2ююз39865 0.0 1015174
03:00+1ююз3118671 0.0 1016248
06:00+3ююз3987100 0.0 1016286
09:00+7ююз5116789 0.0 1017819
12:00+10ююз51054100 0.0 10161839
15:00+7ююз5978100 0.0 10161213
18:00+6ююз41093100 0.1 1016732
21:00+5ю3995100 0.5 1016462
11 мая, вт
вт1100:00+6ю2899100 1.8 1017321
03:00+6ююв1199100 4.0 101728
06:00+8ю2299100 0.9 101754
09:00+9ююз279899 1.0 1019320
12:00+13ююз41187100 0.0 1019762
15:00+18юз61374100 0.0 10191120
18:00+18юз61270100 0.0 10201147
21:00+15юз51476100 0.0 1021605
12 мая, ср
ср1200:00+13юз4138116 0.0 1022432
03:00+11юз3129032 0.0 1023305
06:00+11юз3108454 0.0 1024297
09:00+17юз47625 0.0 1024453
12:00+20юз47471 0.0 10241240
15:00+22юз57404 0.0 10231621
18:00+22юз36465 0.0 10221486
21:00+17юз23690 0.0 102340
13 мая, чт
чт1300:00+13ююз22770 0.0 102319
03:00+12ююз22820 0.0 102313
06:00+13ю23784 0.0 1022114
09:00+18ююз365477 0.0 1022504
12:00+22ююз354574 0.0 10201382
15:00+24ююз35375 0.0 10192099
18:00+22ююв454930 0.0 10181091
21:00+17ююв26694 0.0 1017138